Probability
0 0 0 0 0 0 0 0 0 0 0 0 0 0 0 0 0 0 0 0 0 0 0 0 0 0 0 0 0 0 0 0 0 0 0 0 0 0 0 0 0 0 0
0 0 0 0 0 0 0 0 0 0 0 0 0 0 0 0 0 0 0 0 0 0 0 0 0 0 0 0 0 0 0 0 0 0 0 0 0 0 0 0 0 0 0
0 0 0 0 0 0 0 0 0 0 0 0 0 0 0 0 0 0 0 0 0 0 0 0 0 0 0 0 0 0 0 0 0 0 0 0 0 0 0 0 0 0 0
0 0 0 0 0 0 0 0 0 0 0 0 0 0 0 0 0 0 0 0 0 0 0 0 0 0 0 0 0 0 0 0 0 0 0 0 0 0 0 0 0 0 0
0 0 0 0 0 0 0 0 0 0 0 0 0 0 0 0 0 0 0 0 0 0 0 0 0 0 0 0 0 0 0 0 0 0 0 0 0 0 0 0 0 0 0
0 0 0 0 0 0 0 0 0 0 0 0 0 0 0 0 0 0 0 0 0 0 0 0 0 0 0 0 0 0 0 0 0 0 0 0 0 0 0 0 0 0 0
0 0 0 0 0 0 0 0 0 0 0 0 0 0 0 0 0 0 0 0 0 0 0 0 0 0 0 0 0 0 0 0 0 0 0 0 0 0 0 0 0 0 0
0 0 0 0 0 0 0 0 0 0 0 0 0 0 0 0 0 0 0 0 0 0 0 0 0 0 0 0 0 0 0 0 0 0 0 0 0 0 0 0 0 0 0
0 0 0 0 0 0 0 0 0 0 0 0 0 0 0 0 0 0 0 0 0 0 0 0 0 0 0 0 0 0 0 0 0 0 0 0 0 0 0 0 0 0 0
0 0 0 0 0 0 0 0 0 0 0 0 0 0 0 0 0 0 0 0 0 0 0 0 0 0 0 0 0 0 0 0 0 0 0 0 0 0 0 0 0 0 0
0 0 0 0 0 0 0 0 0 0 0 0 0 0 0 0 0 0 0 0 0 0 0 0 0 0 0 0 0 0 0 0 0 0 0 0 0 0 0 0 0 0 0
0 0 0 0 0 0 0 0 0 0 0 0 0 0 0 0 0 0 0 0 0 0 0 0 0 0 0 0 0 0 0 0 0 0 0 0 0 0 0 0 0 0 0
0 0 0 0 0 0 0 0 0 0 0 0 0 0 0 0 0 0 0 0 0 0 0 0 0 0 0 0 0 0 0 0 0 0 0 0 0 0 0 0 0 0 0
0 0 0 0 0 0 0 0 0 0 0 0 0 0 0 0 0 0 0 0 0 0 0 0 0 0 0 0 0 0 0 0 0 0 0 0 0 0 0 0 0 0 0
0 0 0 0 0 0 0 0 0 0 0 0 0 0 0 0 0 0 0 0 0 0 0 0 0 0 0 0 0 0 0 0 0 0 0 0 0 0 0 0 0 0 0
0 0 0 0 0 0 0 0 0 0 0 0 0 0 0 0 0 0 0 0 0 0 0 0 0 0 0 0 0 0 0 0 0 0 0 0 0 0 0 0 0 0 0
0 0 0 0 0 0 0 0 0 0 0 0 0 0 0 0 0 0 0 0 0 0 0 0 0 0 0 0 0 0 0 0 0 0 0 0 0 0 0 0 0 0 0
0 0 0 0 0 0 0 0 0 0 0 0 0 0 0 0 0 0 0 0 0 0 0 0 0 0 0 0 0 0 0 0 0 0 0 0 0 0 0 0 0 0 0
0 0 0 0 0 0 0 0 0 0 0 0 0 0 0 0 0 0 0 0 0 0 0 0 0 0 0 0 0 0 0 0 0 0 0 0 0 0 0 0 0 0 0
0 0 0 0 0 0 0 0 0 0 0 0 0 0 0 0 0 0 0 0 0 0 0 0 0 0 0 0 0 0 0 0 0 0 0 0 0 0 0 0 0 0 0
0 0 0 0 0 0 0 0 0 0 0 0 0 0 0 0 0 0 0 0 0 0 0 0 0 0 0 0 0 0 0 0 0 0 0 0 0 0 0 0 0 0 0
0 0 0 0 0 0 0 0 0 0 0 0 0 0 0 0 0 0 0 0 0 0 0 0 0 0 0 0 0 0 0 0 0 0 0 0 0 0 0 0 0 0 0
0 0 0 0 0 0 0 0 0 0 0 0 0 0 0 0 0 0 0 0 0 0 0 0 0 0 0 0 0 0 0 0 0 0 0 0 0 0 0 0 0 0 0
0 0 0 0 0 0 0 0 0 0 0 0 0 0 0 0 0 0 0 0 0 0 0 0 0 0 0 0 0 0 0 0 0 0 0 0 0 0 0 0 0 0 0
0 0 0 0 0 0 0 0 0 0 0 0 0 0 0 0 0 0 0 0 0 0 0 0 0 0 0 0 0 0 0 0 0 0 0 0 0 0 0 0 0 0 0
0 0 0 0 0 0 0 0 0 0 0 0 0 0 0 0 0 0 0 0 0 0 0 0 0 0 0 0 0 0 0 0 0 0 0 0 0 0 0 0 0 0 0
Wind_Speed
1 1 1 2 2 2 3 3 3 3 3 3 3 3 3 3 2 1 1 1 1 1 1 0 1 1 1 1 1 1 2 2 2 2 1 1 2 2 2 2 3 3 4
2 1 1 1 2 3 3 4 3 3 3 3 3 3 3 3 2 1 1 1 1 1 1 1 1 0 0 1 1 1 2 2 3 2 1 1 2 3 3 3 3 3 3
2 1 0 1 2 3 3 3 3 3 4 4 3 3 3 3 2 1 1 1 1 0 0 0 1 1 1 1 1 1 1 1 2 2 2 1 1 2 2 2 2 2 3
2 1 1 1 2 2 3 3 3 3 3 4 4 3 3 2 2 1 1 1 1 1 1 1 1 1 2 2 1 1 1 1 1 2 2 1 1 1 2 2 2 2 2
2 2 2 2 1 2 2 3 3 3 3 3 3 4 4 2 2 1 1 1 1 1 2 1 1 2 2 2 2 2 2 2 2 2 2 2 2 2 3 2 3 2 1
3 3 2 1 1 1 2 2 3 3 3 3 4 4 4 3 5 4 1 1 1 1 2 2 2 2 2 3 3 3 3 3 3 3 3 3 3 3 2 3 3 3 2
3 2 2 1 1 2 2 2 2 3 3 3 3 3 4 5 6 6 4 1 1 1 1 1 1 2 2 1 2 3 4 5 5 4 4 5 4 4 4 4 4 4 3
2 2 2 2 2 2 1 2 2 2 2 2 3 3 3 5 6 5 4 2 1 2 1 1 1 2 2 1 1 1 2 3 4 4 5 5 5 4 5 5 4 3 1
3 3 3 3 2 2 2 3 2 2 2 2 2 3 3 5 6 5 3 1 2 2 2 2 1 1 3 2 0 1 2 3 3 4 6 6 7 7 5 3 4 4 3
5 5 4 3 3 3 4 3 2 2 3 3 3 3 3 4 5 4 2 1 1 2 2 3 3 3 3 2 0 1 2 3 2 1 1 2 3 4 6 5 5 5 3
4 4 3 3 4 4 3 3 2 2 2 3 3 3 3 4 5 5 1 1 1 1 2 2 3 5 4 4 2 2 4 4 2 1 1 1 1 1 2 3 4 4 4
3 3 3 4 3 3 3 3 2 2 2 3 3 4 3 4 4 4 3 2 2 1 2 2 3 5 6 6 4 4 4 2 1 1 1 1 1 1 2 2 2 3 3
2 2 3 3 3 3 3 3 2 2 2 3 2 3 4 3 4 6 5 4 3 2 2 4 5 6 6 4 5 5 3 1 1 1 2 2 2 2 1 1 1 1 1
2 2 2 2 3 3 3 3 3 3 3 3 3 4 4 3 3 3 3 2 3 2 2 4 5 5 4 4 4 3 2 2 2 2 2 2 1 1 1 1 1 1 1
1 2 2 2 3 3 3 3 4 5 5 4 4 4 3 4 6 6 4 3 3 3 1 1 2 2 3 3 3 3 2 2 2 2 2 2 2 1 2 1 1 1 1
0 2 2 2 2 2 3 4 5 6 8 9 8 6 5 8 9 7 8 7 6 4 2 1 2 2 3 3 3 3 3 2 2 2 2 2 3 3 2 2 2 2 2
1 1 1 2 2 2 2 2 4 5 5 6 7 7 8 9 9 8 7 6 5 4 2 3 3 4 4 4 3 3 3 3 2 2 3 3 3 3 3 3 3 3 3
1 1 1 1 2 2 2 2 2 3 4 4 5 7 8 8 7 6 4 1 1 1 2 4 4 4 4 4 4 4 4 3 3 3 3 3 4 4 4 4 4 4 4
2 1 1 1 2 2 2 2 2 2 2 3 4 6 8 7 5 4 1 0 2 3 3 4 4 4 4 4 4 4 4 4 4 3 3 4 4 4 4 4 4 6 5
3 6 4 2 2 3 3 3 3 3 3 4 4 5 5 5 5 5 3 2 2 3 4 4 4 4 4 4 4 3 3 4 4 4 4 4 4 4 5 6 5 5 5
3 4 7 5 3 3 3 3 3 3 3 3 4 6 7 4 4 4 4 3 3 4 4 4 4 4 4 4 4 4 4 4 3 4 4 4 4 4 4 5 5 6 5
3 3 4 4 3 4 4 4 4 4 5 5 4 6 9 5 5 5 5 5 5 4 5 4 4 4 4 4 4 4 4 4 4 4 4 4 4 4 5 5 5 5 6
4 4 4 4 4 5 5 4 4 4 4 5 5 5 5 5 5 5 5 5 5 5 5 5 5 5 5 4 3 3 4 4 5 5 5 5 5 5 5 6 6 6 6
4 4 4 4 4 4 4 4 4 4 4 4 4 4 4 4 4 5 5 5 5 5 5 5 6 8 9 7 6 4 4 6 6 5 6 6 6 6 5 6 6 7 7
3 3 3 3 3 3 3 3 3 3 4 3 4 4 4 4 4 5 4 4 5 5 6 6 5 6 8 9 9 8 10 11 9 7 6 5 7 7 7 7 7 7 7
2 2 2 2 2 2 2 2 2 2 3 3 3 3 3 3 4 4 4 4 5 5 5 5 6 7 8 7 9 11 13 14 13 12 7 5 6 6 7 7 8 8 8
Wind_Direction
242 292 344 328 331 342 340 326 322 327 334 339 334 338 343 343 347 13 4 19 30 349 335 128 261 231 202 217 190 176 183 169 200 242 234 196 179 185 175 179 183 191 202
217 209 299 317 338 345 338 330 330 332 335 340 344 347 345 347 348 2 354 15 26 345 333 24 302 286 236 218 177 187 195 187 180 213 230 206 206 187 180 183 188 191 195
195 173 312 327 330 330 328 334 343 344 344 350 359 352 342 336 338 336 342 342 347 301 267 235 259 225 237 239 213 212 215 210 181 182 211 212 213 174 168 184 185 186 198
175 168 240 284 290 302 321 341 347 348 352 350 351 343 338 342 346 348 8 2 351 331 295 250 248 227 224 212 215 219 205 194 187 182 197 201 209 179 164 180 192 198 200
170 187 239 266 289 316 333 341 346 347 351 346 348 348 346 349 356 357 347 345 337 330 323 302 274 266 242 218 212 204 189 192 191 196 203 203 203 188 196 188 192 191 211
173 202 227 261 306 316 318 332 343 341 341 350 349 347 350 349 355 360 359 350 328 312 310 312 302 292 276 269 256 228 209 204 204 200 208 209 218 211 199 194 183 187 216
182 206 217 225 258 288 313 336 328 324 333 338 338 343 338 331 345 357 3 22 349 315 289 302 315 325 317 290 273 259 250 241 221 204 207 214 211 206 196 202 203 198 209
186 211 221 222 248 277 308 307 300 304 311 313 320 326 325 325 340 347 357 20 15 359 340 300 296 316 314 300 278 284 271 258 240 225 220 225 220 211 206 209 202 188 178
201 219 224 218 230 255 272 276 273 285 295 296 296 310 315 314 328 340 3 27 17 354 347 341 319 309 323 341 274 265 300 299 274 242 231 234 232 224 203 178 180 182 204
219 224 223 217 221 236 250 259 261 256 270 286 296 293 292 298 315 322 348 58 10 334 338 339 331 325 325 348 318 251 270 283 298 312 275 266 241 222 206 197 194 192 182
224 222 225 226 228 235 248 256 262 273 293 298 297 294 290 287 304 307 293 141 218 292 314 320 317 327 330 325 312 261 266 278 269 255 269 271 263 232 217 209 200 195 189
212 218 234 240 244 237 236 259 265 267 286 293 298 300 293 287 287 290 271 229 201 209 270 286 298 314 321 320 312 292 295 306 265 247 255 253 242 235 228 220 210 207 201
195 233 254 263 259 250 235 250 265 261 261 276 278 282 288 287 285 281 273 260 237 222 258 277 297 311 320 320 308 306 311 305 249 244 246 248 237 221 197 193 185 168 148
205 251 268 275 282 277 258 244 242 250 254 264 266 268 275 282 276 274 270 268 268 268 281 297 308 317 312 297 303 308 294 259 237 239 248 256 252 211 204 192 186 169 149
227 267 281 275 274 279 274 253 242 239 228 230 242 242 250 272 266 240 219 227 225 232 253 315 327 328 324 317 311 299 286 277 256 245 237 242 241 232 227 200 178 167 178
246 292 291 290 287 284 288 299 276 262 272 259 252 249 249 251 270 259 239 235 229 215 184 255 273 276 278 283 290 295 287 263 247 241 238 233 228 224 226 210 188 186 197
215 278 298 310 305 302 300 299 309 316 312 296 288 285 275 277 274 262 249 242 235 200 211 251 259 262 265 267 266 265 270 266 249 237 238 236 227 220 215 214 207 203 209
4 346 343 305 306 309 305 300 298 312 329 330 322 319 313 302 295 284 255 208 278 237 241 257 263 263 261 259 260 261 263 265 253 243 241 241 226 216 215 216 212 212 212
24 359 350 341 341 340 338 341 344 345 341 338 346 348 342 338 345 354 121 170 273 281 272 269 269 269 266 259 256 255 256 258 256 245 240 236 227 218 223 222 217 217 214
26 30 40 27 16 14 14 16 11 9 12 13 7 353 355 21 25 17 21 346 312 305 304 298 296 295 293 286 276 266 261 260 260 255 250 243 233 223 228 226 220 217 217
38 32 41 44 35 32 32 29 25 28 25 18 8 6 14 29 19 9 6 360 345 331 323 316 309 308 303 301 293 284 274 272 264 259 258 252 241 236 234 231 227 222 219
54 49 45 44 39 39 36 32 33 35 31 27 16 19 25 30 23 18 11 4 356 347 342 340 337 329 325 323 317 310 300 293 287 278 270 263 252 245 242 235 232 227 222
62 59 52 44 43 41 41 35 36 36 32 28 25 24 25 26 24 21 15 6 0 357 353 350 345 341 336 326 317 316 315 305 297 291 283 273 263 253 243 239 235 232 228
66 65 61 51 47 45 41 34 30 31 29 26 23 22 19 15 12 12 7 1 0 2 2 359 358 353 354 354 347 338 331 323 316 300 286 278 270 263 252 246 240 236 234
70 69 66 59 52 45 40 35 29 26 23 21 19 14 8 6 3 359 354 352 353 355 354 351 348 348 350 352 350 345 337 333 329 319 301 286 280 270 260 254 250 241 233
79 78 74 65 54 45 41 31 21 17 13 10 6 359 355 353 348 343 341 343 341 340 340 337 338 338 338 339 336 335 338 336 332 324 309 290 284 281 275 266 258 251 240